Zurück zum Katalog

INTELSAT 4A-F3

AktivKommunikationGEO
NORAD 10557·PAYLOAD· XX

Gestartet Jan 7, 1978 von Cape Canaveral Space Force Station

Loading…

TLE

AktuellSource: Space-Track

Epoche: Sep 14, 2026, 12:44 UTC

1 10557U 78002A   26257.53084872 -.00000352  00000-0  00000+0 0  9994
2 10557   8.8295 312.1338 0004958 290.9315  77.9028  0.99916021 49641

Verfolge INTELSAT 4A-F3 in Echtzeit mit AllMySat

Download on the App Store